Location: Bats
(43.6587°N, 0.4584°W)
Time: 20:21:47
(UTC+00:00)

Cosmos 968 Rocket - Pass Details

Date: 12 January 2026
Orbit: 737 x 764 km, 74.0° (Epoch: 13 February)

Event Time Altitude Azimuth Distance (km) Brightness Sun altitude
Rises 18:43:00 0° 337° (NNW) 3,210 6.9 -20.4°
Reaches altitude 10° 18:45:23 10° 335° (NNW) 2,276 6.1 -20.9°
Maximum altitude 18:50:31 71° 252° (WSW) 787 3.6 -21.8°
Drops below altitude 10° 18:55:34 10° 169° (S) 2,244 5.9 -22.7°
Sets 18:57:54 0° 168° (SSE) 3,159 6.7 -23.1°
